User: anonymous   Login
Location: Monfort
(47.1967°N, 0.2115°W)
Time: 16:43:56
(UTC+00:00)
Language:

USA 305 - Orbit

View from above orbital plane
View from above orbital plane
View from above satellite
View from above satellite

Ground track
Ground track

The orbit data is extracted from the following two-line orbital elements,

1 45873U 20046A   21011.78134698 0.00001621  00000-0  13439-3 0    06
2 45873  53.9780 224.3612 0008989  65.8187 294.2079 14.98345309    09
Epoch (UTC): 11 January 2021 18:45:08
Eccentricity: 0.0008989
inclination: 53.9780°
perigee height: 566 km
apogee height: 578 km
right ascension of ascending node: 224.3612°
argument of perigee: 65.8187°
revolutions per day: 14.98345309
mean anomaly at epoch: 294.2079°
orbit number at epoch: 0

The dashed part of the orbit path shows where the satellite is in the earth's shadow,  

DLR